Regional Weather Roundup
Issued by NWS

Home | Current Version | Previous Version | Graphics & Text | Print | Product List | Glossary On
Versions: 1 2 3 4 5 6 7 8 9 10 11 12 13 14 15 16 17 18 19 20 21 22 23 24 25 26 27 28 29 30 31 32 33 34 35 36 37 38 39 40 41 42 43 44 45 46 47 48 49 50
000
ASUS43 KLOT 240500
RWRIL

ILLINOIS REGIONAL WEATHER ROUNDUP
NATIONAL WEATHER SERVICE CHICAGO/ROMEOVILLE IL
1200 AM CDT THU APR 24 2014

NOTE: "FAIR" INDICATES FEW OR NO CLOUDS BELOW 12,000 FEET WITH NO
SIGNIFICANT WEATHER AND/OR OBSTRUCTIONS TO VISIBILITY.

* THESE STATIONS ARE NOT UNDER NWS QUALITY CONTROL. THEY ALSO MAY NOT
  REPORT WEATHER SUCH AS PRECIPITATION OR FOG.

ILZ001-002-007-009-015-016-024-240600-
NORTHWEST ILLINOIS

CITY           SKY/WX    TMP DP  RH WIND       PRES   REMARKS
MOLINE         CLOUDY    47  39  74 E17       29.93F
STERLING*      CLOUDY    45  34  65 SE14      30.00F
$$

ILZ003-004-008-010-011-017-018-240600-
NORTH CENTRAL ILLINOIS

CITY           SKY/WX    TMP DP  RH WIND       PRES   REMARKS
ROCKFORD       CLOUDY    41  32  70 E9        30.06R
$$

ILZ005-006-012>014-019>023-240600-
NORTHEAST ILLINOIS

CITY           SKY/WX    TMP DP  RH WIND       PRES   REMARKS
CHICAGO-OHARE  LGT RAIN  41  26  55 E9        30.03F
CHICAGO-MIDWAY LGT RAIN  41  31  67 E10       30.03F
AURORA         CLOUDY    41  34  76 CALM      30.04R
WAUKEGAN       LGT RAIN  36  27  69 NE6       30.05S WCI  31
DUPAGE AIRPORT LGT RAIN  40  29  64 E7        30.03R
WHEELING       CLOUDY    40  27  59 E6        30.05F
NORTHERLY ISL    N/A     40  30  68 E13         N/A
$$

LMZ740>746-240600-
SOUTHERN LAKE MICHIGAN

STATION/POSITION SKY/WX   TEMP    WIND        PRES    VSBY  WAVE
                          AIR SEA DIR/SP/G                  HT/PER
                          (F)     (DEG/KT/KT) (MB)    (MI)  (FT/S)
WAUKEGAN HARBOR            36      90/  9/ 10 1019.0F
HARRISON CRIB              37      90/ 13/ 15   N/A
BURNHAM HARBOR             40      90/ 10/ 12   N/A
CALUMET HARBOR             40      80/ 11/ 13 1017.9F
MICHIGAN CITY              41      70/  6/  7   N/A
$$

ILZ025>027-034>036-040-047-049-050-058-095>099-240600-
WEST-CENTRAL ILLINOIS

CITY           SKY/WX    TMP DP  RH WIND       PRES   REMARKS
QUINCY         CLEAR     53  33  46 SE16      29.88F
$$

ILZ028>032-037-038-041>044-048-051>054-059>061-240600-
CENTRAL ILLINOIS

CITY           SKY/WX    TMP DP  RH WIND       PRES   REMARKS
DECATUR        PTCLDY    54  33  45 SE9       29.99F
PEORIA         CLOUDY    53  36  52 E7        29.98R
SPRINGFIELD    MOCLDY    55  31  39 SE9       29.98S
TAYLORVILLE    NOT AVBL
$$

ILZ033-039-045-046-055>057-062-063-240600-
EAST-CENTRAL ILLINOIS

CITY           SKY/WX    TMP DP  RH WIND       PRES   REMARKS
CHAMPAIGN      MOCLDY    51  38  60 E12       30.00F
MATTOON        MOCLDY    53  31  42 SE10      29.99F
$$

ILZ079-100>102-240600-
SOUTHWEST ILLINOIS

CITY           SKY/WX    TMP DP  RH WIND       PRES   REMARKS
BELLEVILLE     CLEAR     51  38  62 SE7       29.97S
CAHOKIA*       CLEAR     54  35  48 SE9       29.96S
$$

ILZ064>066-069>071-074>076-080>082-084>086-088>090-092>094-240600-
SOUTH-CENTRAL ILLINOIS

CITY           SKY/WX    TMP DP  RH WIND       PRES   REMARKS
CARBONDALE     CLEAR     50  38  63 E6        29.99R
MT. VERNON     CLEAR     46  34  61 NE3       30.00S
$$

ILZ067-068-072-073-078-083-087-091-240600-
SOUTHEAST ILLINOIS

CITY           SKY/WX    TMP DP  RH WIND       PRES   REMARKS
ROBINSON*      CLEAR     54  37  52 E8        30.02F
$$

ABBREVIATIONS USED IN REMARKS
   TC - TEMPERATURE IN CELSIUS
  WCI - WIND CHILL INDEX
   HX - HEAT INDEX
  VSB - VISIBILITY
$$




USA.gov is the U.S. government's official web portal to all federal, state and local government web resources and services.